{"data":{"norad_id":81615,"epoch":"2026-09-16T03:17:12.265728Z","epoch_age_seconds":391486,"freshness":"STALE","line1":"1 81615U          26259.13694752  .00001625  00000+0  58073-3 0  9991","line2":"2 81615  65.8260 135.1191 0772279   6.8680 354.2242 13.35180648619886","mean_motion":13.35180648,"eccentricity":0.0772279,"inclination_deg":65.826,"raan_deg":135.1191,"arg_perigee_deg":6.868,"mean_anomaly_deg":354.2242,"bstar":0.00058073,"rev_number":61988,"period_min":107.85057453888,"perigee_km":547.6576478305,"apogee_km":1706.9137122113,"semimajor_km":7505.4226800209,"source":"CELESTRAK","updated_at":"2026-09-20T09:00:32.391835Z"}}